Ames, IA

8:10 AM CST on January 17, 2018 (GMT -0600)
Ames Municipal

Weather History for KAMW - May, 2012

Change the Weather History Date:

Monday, May 14, 2012

  Actual Average Record
Temperature  
Mean Temperature 63 °F 60 °F  
Max Temperature 83 °F 71 °F 94 °F (2013)
Min Temperature 43 °F 49 °F 35 °F (2014)
Degree Days  
Heating Degree Days 2 6  
Month to date heating degree days 39 115  
Since 1 July heating degree days 5325 6737  
Cooling Degree Days 0 1  
Month to date cooling degree days 36 9  
Year to date cooling degree days 61 12  
Growing Degree Days 12 (Base 50)    
Moisture  
Dew Point 41 °F    
Average Humidity 54    
Maximum Humidity 86    
Minimum Humidity 21    
Precipitation  
Precipitation 0.00 in 0.16 in 0.71 in (2015)
Month to date precipitation 2.05  
Sea Level Pressure  
Sea Level Pressure 30.06 in    
Wind  
Wind Speed 8 mph (SW)    
Max Wind Speed 20 mph    
Max Gust Speed 26 mph    
Visibility 10 miles    
Events      
T = Trace of Precipitation, MM = Missing Value Source: NWS Daily Summary

Daily Weather History Graph

Daily Weather History Graph

Search for Another Location

Airport or City:

Trip Planner

Search our weather history database for the weather conditions in past years. The results will help you decide how hot, cold, wet, or windy it might be!

Date:

Astronomy

May. 14, 2012 Rise Set
Actual Time 5:54 AM CDT 8:27 PM CDT
Civil Twilight 5:22 AM CDT 8:59 PM CDT
Nautical Twilight 4:42 AM CDT 9:39 PM CDT
Astronomical Twilight 3:58 AM CDT 10:24 PM CDT
Moon 2:35 AM CDT (5/14) 2:43 PM CDT (5/14)
Length of Visible Light 15h 37m
Length of Day
14h 33m
Waning Crescent, 32% of the Moon is Illuminated
May 14
Waning Crescent
May 20
New
May 28
First Quarter
Jun 4
Full
Jun 11
Last Quarter

Hourly Weather History & Observations

Time (CDT) Temp. Dew Point Humidity Pressure Visibility Wind Dir Wind Speed Gust Speed Precip Events Conditions
12:53 AM 52.0 °F 37.9 °F 59% 30.13 in 10.0 mi SW 3.5 mph - N/A   Clear
1:53 AM 51.1 °F 39.0 °F 63% 30.12 in 10.0 mi Calm Calm - N/A   Clear
2:53 AM 50.0 °F 37.9 °F 63% 30.11 in 10.0 mi Calm Calm - N/A   Clear
3:53 AM 48.0 °F 39.9 °F 74% 30.12 in 10.0 mi Calm Calm - N/A   Clear
4:53 AM 44.1 °F 37.9 °F 79% 30.11 in 10.0 mi Calm Calm - N/A   Clear
5:53 AM 44.1 °F 39.0 °F 82% 30.12 in 10.0 mi Calm Calm - N/A   Clear
6:53 AM 46.9 °F 43.0 °F 86% 30.12 in 10.0 mi Calm Calm - N/A   Clear
7:53 AM 61.0 °F 43.0 °F 52% 30.12 in 10.0 mi West 9.2 mph - N/A   Clear
8:53 AM 68.0 °F 41.0 °F 37% 30.12 in 10.0 mi WSW 13.8 mph - N/A   Clear
9:53 AM 73.0 °F 42.1 °F 33% 30.12 in 10.0 mi West 15.0 mph - N/A   Clear
10:53 AM 77.0 °F 37.9 °F 24% 30.10 in 10.0 mi West 11.5 mph 19.6 mph N/A   Clear
11:53 AM 78.1 °F 39.0 °F 25% 30.09 in 10.0 mi SW 11.5 mph - N/A   Clear
12:53 PM 79.0 °F 39.0 °F 24% 30.07 in 10.0 mi SSW 9.2 mph 20.7 mph N/A   Clear
2:53 PM 81.0 °F 39.9 °F 23% 30.03 in 10.0 mi WSW 11.5 mph 24.2 mph N/A   Clear
3:53 PM 81.0 °F 39.9 °F 23% 30.01 in 10.0 mi West 9.2 mph 21.9 mph N/A   Clear
4:53 PM 81.0 °F 39.9 °F 23% 29.99 in 10.0 mi WSW 11.5 mph 20.7 mph N/A   Clear
5:53 PM 80.1 °F 41.0 °F 25% 29.98 in 10.0 mi SW 8.1 mph - N/A   Clear
6:53 PM 80.1 °F 37.0 °F 21% 29.97 in 10.0 mi WSW 12.7 mph - N/A   Clear
7:53 PM 75.0 °F 39.9 °F 28% 29.96 in 9.0 mi SW 8.1 mph - N/A   Clear
9:53 PM 66.9 °F 44.1 °F 44% 29.97 in 10.0 mi South 9.2 mph - N/A   Clear
10:53 PM 66.9 °F 46.9 °F 49% 29.97 in 10.0 mi South 12.7 mph - N/A   Clear
11:53 PM 64.9 °F 48.0 °F 54% 29.97 in 10.0 mi SSW 12.7 mph - N/A   Clear